This demonstration page uses our WeatherBlox Daily Observations layout. Learn more.

38.89511, -77.03637

Hourly Observations for November 13, 2019

Temp ( °F °C ) Dew Point ( °F °C ) Humidity (%) Winds ( mph kmh ) Pressure ( in mb ) Visibility ( mi km ) Precip ( " mm )
12:52 am 00:52 Clear 29 -1.7 12 -11.1 49 49 NW 12 19 30.3 1026 10 16.09344 0 0
1:52 am 01:52 Clear 28 -2.2 11 -11.7 49 49 NNW 17 28 30.3 1026 10 16.09344 0 0
2:52 am 02:52 Clear 28 -2.2 10 -12.2 47 47 NNW 13 20 30.33 1027 10 16.09344 0 0
3:52 am 03:52 Clear 27 -2.8 11 -11.7 51 51 NNW 10 17 30.33 1027 10 16.09344 0 0
4:52 am 04:52 Clear 27 -2.8 12 -11.1 53 53 NW 15 24 30.36 1028 10 16.09344 0 0
5:52 am 05:52 Clear 26 -3.3 13 -10.6 57 57 NW 14 22 30.39 1029 10 16.09344 0 0
6:52 am 06:52 Mostly Sunny 26 -3.3 13 -10.6 57 57 NW 12 19 30.39 1029 10 16.09344 0 0
7:52 am 07:52 Sunny 27 -2.8 13 -10.6 55 55 NNW 12 19 30.42 1030 10 16.09344 0 0
8:52 am 08:52 Sunny 29 -1.7 13 -10.6 51 51 NW 14 22 30.45 1031 10 16.09344 0 0
9:52 am 09:52 Sunny 33 0.6 13 -10.6 43 43 NW 14 22 30.45 1031 10 16.09344 0 0
10:52 am 10:52 Mostly Sunny 34 1.1 14 -10 44 44 NW 13 20 30.45 1031 10 16.09344 0 0
11:52 am 11:52 Partly Cloudy 36 2.2 12 -11.1 37 37 NW 8 13 30.42 1030 10 16.09344 0 0
12:52 pm 12:52 Mostly Sunny 37 2.8 12 -11.1 36 36 N 8 13 30.42 1030 10 16.09344 0 0
1:52 pm 13:52 Mostly Sunny 38 3.3 12 -11.1 34 34 N 6 9 30.42 1030 10 16.09344 0 0
2:52 pm 14:52 Partly Cloudy 37 2.8 12 -11.1 36 36 VRB 3 6 30.39 1029 10 16.09344 0 0
3:52 pm 15:52 Partly Cloudy 37 2.8 12 -11.1 36 36 N 7 11 30.39 1029 10 16.09344 0 0
4:52 pm 16:52 Mostly Cloudy 36 2.2 10 -12.2 34 34 Calm 30.39 1029 10 16.09344 0 0
5:52 pm 17:52 Mostly Cloudy 34 1.1 12 -11.1 40 40 Calm 30.39 1029 10 16.09344 0 0
6:52 pm 18:52 Mostly Cloudy 34 1.1 12 -11.1 40 40 Calm 30.42 1030 10 16.09344 0 0
7:52 pm 19:52 Partly Cloudy 34 1.1 17 -8.3 50 50 SE 5 7 30.42 1030 10 16.09344 0 0
8:52 pm 20:52 Partly Cloudy 34 1.1 17 -8.3 50 50 SSE 6 9 30.42 1030 10 16.09344 0 0
9:52 pm 21:52 Mostly Cloudy 32 0 17 -8.3 54 54 SSE 6 9 30.45 1031 10 16.09344 0 0
10:52 pm 22:52 Mostly Cloudy 33 0.6 17 -8.3 52 52 SSE 7 11 30.42 1030 10 16.09344 0 0
11:52 pm 23:52 Mostly Cloudy 33 0.6 17 -8.3 52 52 S 7 11 30.42 1030 10 16.09344 0 0

Powered by AerisWeather